Theta_e
316 319 319 317 319 321 323 323 323 324 325 326 327 326 327 325 323 322 323 324 322 323 324 324 323 328 338 358 362 359 359 359 360 359 358 358 355 356 354 355 353 353 354 353
321 318 318 318 317 318 320 321 322 323 323 325 327 327 328 327 325 324 324 324 323 324 324 324 324 329 334 350 357 362 361 359 361 361 361 359 359 358 357 356 355 355 356 355
321 320 319 319 319 318 317 319 321 321 321 323 326 329 328 326 327 326 325 325 324 322 324 325 327 328 333 341 350 356 362 361 360 361 360 357 355 357 358 359 355 354 356 355
321 320 319 319 320 320 320 318 318 319 322 324 324 329 330 327 326 327 327 324 324 322 324 326 327 330 331 335 339 342 353 361 362 360 357 357 355 357 358 359 359 357 356 355
324 323 321 320 322 322 323 320 319 318 320 322 323 326 328 327 326 326 327 327 327 324 323 324 327 329 330 334 333 328 333 349 361 358 356 356 355 354 354 355 355 355 354 352
320 320 320 320 320 321 321 323 325 319 320 322 323 325 327 327 327 327 326 327 327 325 325 324 326 326 327 330 332 332 334 345 355 356 353 355 352 349 351 352 354 355 352 351
318 319 317 317 316 317 319 324 332 325 323 324 321 323 324 326 325 325 326 327 326 326 325 325 325 325 328 327 332 336 338 343 353 356 355 353 350 353 354 354 353 352 351 349
322 324 319 318 319 319 321 322 330 329 326 323 322 323 323 323 323 325 324 326 327 327 326 326 326 326 325 326 329 333 341 344 351 355 355 351 347 352 352 353 352 350 349 347
325 321 320 319 320 320 322 324 324 329 321 321 321 323 323 323 323 324 324 325 328 328 327 327 326 327 326 326 331 336 341 348 356 356 353 353 352 350 352 349 347 346 345 345
322 324 318 318 319 320 321 323 328 327 327 331 327 328 324 324 325 324 325 325 328 329 328 328 326 329 327 325 336 343 352 352 352 351 352 351 351 348 344 342 341 340 338 338
318 321 320 321 325 323 322 326 326 327 325 325 329 330 334 334 327 326 326 326 328 330 342 343 330 330 328 331 350 350 349 348 347 347 343 343 342 339 338 337 338 337 336 336
316 320 322 320 319 320 324 324 327 330 329 325 329 332 332 335 332 328 329 333 337 347 349 348 342 345 347 348 348 346 344 343 341 339 339 339 338 336 333 330 328 327 325 325
317 320 322 324 322 323 326 323 326 325 326 332 333 333 332 334 340 342 345 344 346 347 346 346 346 348 346 343 342 342 342 340 337 336 334 333 331 329 328 326 324 323 322 321
316 317 318 321 322 320 323 322 323 327 331 330 328 331 332 328 336 337 341 342 343 344 345 346 345 346 344 342 340 339 337 335 333 332 330 328 327 325 323 321 319 317 316 315
317 316 315 316 317 317 319 319 321 324 328 332 330 328 332 335 336 334 337 341 342 343 344 343 344 342 337 338 337 335 333 331 329 328 326 324 322 320 319 318 317 316 316 315
316 318 317 317 317 319 321 320 321 322 326 327 327 326 330 333 333 335 338 340 341 341 340 339 336 336 335 334 332 329 328 327 325 323 322 320 319 318 318 317 316 315 314 313
315 316 316 318 317 318 328 323 322 324 327 325 332 331 329 333 333 335 336 336 336 331 332 333 331 329 327 326 325 325 324 322 321 320 318 317 316 316 315 314 313 312 311 310
316 316 318 318 318 328 325 322 323 327 327 325 330 329 331 331 331 332 332 330 327 328 326 325 324 324 323 323 322 321 320 319 317 316 315 314 313 311 310 310 310 309 309 309
316 317 319 318 325 325 332 329 332 331 327 326 331 327 332 330 325 324 326 324 323 323 321 321 320 320 318 318 316 315 314 313 312 311 310 310 309 308 308 308 308 308 309 309
316 316 317 320 328 335 327 322 323 330 334 331 330 325 331 328 328 324 319 320 319 318 319 318 317 316 316 315 313 313 312 310 310 309 308 307 307 307 307 307 309 309 308 307
319 317 320 320 328 327 318 319 326 334 336 331 333 332 330 329 324 317 314 314 315 315 316 315 314 313 313 311 311 310 309 309 308 307 306 306 306 306 308 308 307 306 306 305
322 326 324 324 328 331 313 321 329 326 328 330 331 331 331 324 319 316 314 312 312 313 313 313 312 312 311 309 308 307 307 306 306 306 306 306 306 307 307 306 305 305 305 305
322 319 319 316 316 311 314 314 316 326 329 327 328 328 323 321 319 316 315 313 312 311 311 311 311 311 311 309 308 307 305 304 304 306 306 306 306 305 304 304 304 304 303 304
316 313 316 315 311 310 312 310 311 314 318 320 321 321 319 316 314 314 313 313 312 312 311 310 310 309 308 308 306 304 303 303 305 306 306 305 304 303 302 301 301 300 300 302
314 313 313 313 310 310 311 310 309 309 310 310 310 311 313 312 311 310 310 310 310 311 311 310 309 308 307 305 303 302 302 303 304 305 305 304 303 301 299 297 297 295 292 294
312 313 316 312 308 312 312 310 309 309 308 308 310 310 309 309 309 309 309 309 310 310 310 310 308 306 305 304 303 302 301 303 304 304 303 303 302 300 298 296 293 293 292 292
Wind_Speed
18 15 22 24 24 27 26 25 28 27 26 28 25 30 25 23 21 16 22 24 26 22 19 23 29 26 26 17 25 31 30 28 33 30 28 24 26 22 24 21 21 22 28 26
18 24 24 21 24 26 26 26 29 26 26 24 24 29 25 25 25 23 19 15 14 18 20 20 26 24 28 28 24 20 31 34 32 29 28 25 23 23 22 23 23 20 22 26
23 25 25 26 24 24 25 26 25 26 25 28 21 24 24 20 24 20 22 20 16 15 16 20 18 26 26 30 29 31 35 32 33 30 26 25 23 20 24 22 23 20 19 19
22 24 27 26 22 25 24 24 26 26 23 19 22 16 21 20 18 19 23 24 20 20 18 15 18 17 27 32 32 27 18 32 34 31 28 25 19 13 10 15 13 16 16 16
20 28 21 22 26 24 22 19 22 25 23 23 28 14 19 20 22 22 22 20 23 23 19 17 13 14 28 31 33 35 35 30 29 33 21 22 18 12 12 10 11 13 16 15
27 26 24 24 23 24 22 16 28 23 18 19 24 22 17 22 20 24 23 23 22 19 21 21 17 17 23 31 31 34 33 26 27 30 27 26 25 19 17 16 16 14 14 14
22 28 27 25 29 27 19 10 12 13 15 17 22 24 19 22 24 21 21 26 26 22 21 20 21 17 15 28 32 31 32 30 27 29 25 27 26 13 24 18 15 16 16 12
15 20 29 23 20 22 23 20 11 12 15 20 25 25 22 27 26 24 14 23 24 24 21 21 21 19 20 24 30 32 33 31 30 28 25 24 23 17 17 18 15 10 12 13
9 18 16 16 18 18 26 8 11 15 22 15 15 27 27 23 28 28 14 8 20 19 20 21 20 17 21 21 27 34 30 27 27 27 27 23 23 19 19 22 22 20 18 16
7 8 12 20 9 22 20 5 14 13 20 9 13 20 19 25 27 25 19 10 7 12 11 12 19 16 24 29 31 34 31 30 27 24 25 24 26 25 27 24 20 18 16 15
5 6 6 5 6 20 17 10 3 6 17 16 9 8 12 22 17 22 17 15 11 9 8 6 12 12 22 29 32 33 31 30 28 28 31 31 29 29 27 26 22 21 19 18
4 5 8 16 12 21 11 20 19 5 13 17 5 4 19 21 9 15 11 12 12 16 13 11 10 19 24 31 32 30 33 34 31 31 31 30 30 29 29 27 24 22 21 17
2 3 7 11 11 3 4 13 15 12 4 20 11 9 11 14 13 10 16 13 12 13 14 10 15 17 20 27 31 33 33 32 32 32 32 31 30 29 28 25 22 20 18 15
6 3 6 10 13 10 8 19 13 13 9 15 15 19 4 10 12 6 9 10 11 14 13 12 14 17 19 28 30 31 30 31 31 32 31 30 28 27 26 24 22 19 16 14
0 3 12 17 19 21 22 22 20 16 16 15 15 14 10 10 8 7 5 10 12 14 16 15 16 17 17 26 28 28 29 31 33 31 30 29 29 27 25 23 20 17 14 12
2 4 14 19 18 18 24 24 22 19 17 14 11 6 2 5 6 3 8 9 11 13 17 17 17 18 17 22 25 29 31 31 31 29 28 29 27 25 22 21 18 15 13 12
14 8 6 7 10 21 10 24 20 18 20 18 18 13 9 10 10 6 12 9 16 16 7 16 18 17 20 26 31 29 28 30 28 27 27 26 24 22 19 17 16 13 13 11
16 8 3 8 11 5 11 13 17 17 19 13 20 13 11 14 9 6 12 18 19 24 16 15 18 21 27 30 31 29 25 25 25 25 24 23 22 20 17 16 13 11 10 10
10 6 2 3 7 7 15 15 7 6 14 14 21 17 16 14 18 11 12 17 16 18 17 16 27 29 31 29 28 28 26 27 26 24 22 20 18 17 15 14 11 9 8 9
6 7 3 3 5 7 8 18 20 12 7 26 25 15 19 19 12 3 13 16 18 15 21 23 28 29 27 25 25 24 24 24 22 20 19 18 16 15 15 11 10 9 13 12
3 2 4 5 5 3 14 25 18 3 3 10 26 29 23 13 11 15 17 17 17 19 22 24 26 24 23 26 27 25 22 21 19 16 16 16 12 14 13 13 13 11 11 10
3 2 1 3 2 2 20 13 7 9 11 6 17 22 17 26 24 17 18 17 16 15 20 20 19 19 21 26 27 21 19 18 14 14 14 12 12 15 15 11 12 10 8 10
1 4 2 4 3 9 9 9 13 13 13 7 5 19 25 26 22 20 17 18 16 16 16 16 15 16 20 24 21 20 18 14 9 10 12 11 17 15 13 11 11 12 11 9
4 6 3 3 5 12 10 9 13 14 16 18 15 18 20 24 20 17 15 14 14 18 15 14 15 15 18 18 17 15 12 7 4 8 12 15 14 12 13 14 14 14 11 7
4 3 3 2 3 5 12 12 13 17 18 19 20 15 17 20 19 18 14 14 13 18 16 13 14 15 16 16 13 10 8 3 6 9 10 13 11 12 14 15 15 12 11 8
5 1 2 3 7 4 10 12 14 21 18 17 21 19 17 18 18 18 13 10 12 18 21 18 16 14 15 12 10 9 6 5 6 12 9 7 12 14 13 14 15 15 17 18
Wind_Direction
220 231 234 228 226 246 256 253 253 251 231 240 241 237 232 218 220 233 229 238 216 224 226 222 217 199 203 197 173 170 170 179 176 183 192 199 207 204 210 211 216 216 203 205
233 233 242 246 251 245 237 249 263 268 271 271 239 243 237 219 208 221 239 244 221 209 220 236 204 200 188 186 192 178 179 182 183 186 192 203 198 205 206 211 219 217 208 200
242 240 239 236 244 250 251 248 247 250 259 268 265 262 242 241 211 213 207 238 218 218 237 220 216 195 179 182 178 183 187 189 186 190 190 201 212 212 203 208 207 207 189 190
248 242 244 254 247 237 240 250 256 253 258 251 249 258 248 228 245 238 212 211 209 207 228 231 216 192 185 173 172 178 180 184 187 190 193 197 194 192 195 170 170 180 179 192
263 288 297 265 243 269 289 267 241 262 245 257 256 253 249 222 225 234 241 226 216 200 215 238 236 189 182 166 168 181 197 196 191 190 197 192 180 189 194 190 195 204 204 220
261 276 267 259 258 273 277 288 300 233 249 244 245 249 231 254 229 220 219 222 223 210 202 220 233 218 185 170 173 180 190 195 194 187 194 179 176 187 186 186 190 194 205 206
281 271 251 252 259 258 242 238 244 232 226 241 234 244 243 238 247 245 245 211 208 204 211 203 217 217 201 187 172 172 179 186 194 183 187 175 181 203 161 164 170 177 186 194
222 259 250 258 234 248 269 246 243 211 225 237 222 236 230 232 253 249 276 220 193 197 203 201 209 202 206 188 173 174 171 178 182 173 163 164 171 157 154 165 162 153 167 190
295 277 327 311 317 242 232 206 248 271 240 238 239 225 232 231 221 239 243 288 185 193 201 197 204 194 191 184 171 161 165 168 164 165 156 162 152 154 138 121 112 102 111 118
21 298 286 262 287 262 251 304 208 222 251 198 261 252 223 215 212 219 211 211 202 182 190 197 197 192 184 188 149 155 140 131 144 146 145 135 132 115 116 117 109 105 102 105
340 258 289 53 249 245 242 211 150 295 252 232 242 267 336 317 194 195 184 180 196 157 75 338 240 202 174 136 119 122 122 117 119 121 116 115 112 111 110 104 102 102 102 99
129 278 276 276 193 238 308 218 207 184 247 248 196 256 292 324 48 162 149 152 138 101 80 39 80 91 95 100 106 108 112 115 118 118 117 115 113 110 104 102 102 98 93 92
328 252 316 313 174 151 321 245 245 221 242 266 281 214 164 317 47 48 105 111 111 103 102 102 102 101 100 104 108 113 117 121 123 121 115 112 108 107 106 105 103 99 92 85
275 253 271 282 306 287 306 297 295 221 214 241 252 284 203 165 119 190 128 127 144 133 129 121 121 110 115 113 115 113 125 128 125 117 113 111 111 107 102 99 94 89 85 78
157 290 302 296 297 290 278 276 279 270 199 241 268 270 273 19 60 118 159 159 151 150 145 143 123 112 115 114 119 131 129 121 116 115 114 112 108 102 99 95 91 86 79 68
210 289 311 297 281 280 261 258 253 257 263 204 247 253 264 132 59 189 146 134 139 135 133 116 120 118 116 118 125 118 112 113 116 117 113 109 106 105 102 97 89 78 68 55
291 288 302 264 342 329 260 235 223 231 233 226 204 210 85 158 138 174 104 103 89 62 112 135 113 111 113 112 107 107 112 115 117 113 110 108 106 99 93 87 75 62 54 45
249 250 229 295 321 240 252 186 212 211 230 203 116 142 155 142 119 122 111 102 100 105 97 80 97 100 98 98 100 107 114 111 106 98 95 91 87 80 77 72 63 54 51 44
215 215 263 274 278 271 42 26 358 271 214 213 130 141 138 118 85 46 89 76 81 84 90 87 89 90 88 89 91 95 91 89 87 84 82 82 82 79 72 66 62 57 64 66
158 188 186 283 280 32 20 341 333 317 218 122 138 143 130 140 117 96 87 90 79 78 81 83 86 89 93 94 100 96 87 83 81 83 82 75 74 76 76 72 80 76 70 71
144 223 222 267 278 53 353 331 311 208 49 90 147 150 155 142 117 123 102 90 88 88 92 90 88 88 89 83 85 80 82 73 74 72 76 72 69 96 90 86 78 76 79 79
219 248 268 246 309 6 343 340 17 306 304 228 144 150 130 118 117 120 113 105 102 96 93 90 92 93 94 95 90 81 71 70 67 71 76 81 83 77 84 85 86 75 72 80
48 16 28 25 13 308 337 337 339 18 60 87 60 114 119 119 122 125 123 120 112 99 89 98 104 92 86 82 85 74 61 56 59 83 85 88 80 79 83 82 75 74 59 67
37 23 77 208 340 347 7 8 27 37 57 77 81 100 114 112 112 114 117 123 120 117 112 112 99 91 86 90 90 88 66 50 47 73 73 80 81 85 77 72 68 64 44 48
343 19 64 72 319 326 43 44 45 63 59 70 69 79 102 112 114 111 109 113 113 121 131 135 128 119 111 98 90 91 94 106 112 101 92 102 103 104 86 79 76 75 62 61
355 243 38 77 309 42 62 58 59 69 70 70 85 81 76 88 99 104 98 95 136 145 150 132 121 115 109 106 104 96 79 88 110 115 110 90 116 114 107 110 96 89 78 73